Location: Anumalkud?ru
(16.4847°N, 80.6636°E)
Time: 15:28:38
(UTC+00:00)

SEDSat Delta rocket - Pass Details

Date: 11 April 2026
Orbit: 529 x 963 km, 31.4° (Epoch: 11 May)

Event Time Altitude Azimuth Distance (km) Brightness Sun altitude
Rises 14:54:03 0° 290° (WNW) 3,558 8.2 -29.2°
Reaches altitude 10° 14:56:53 10° 284° (WNW) 2,567 7.1 -29.8°
Enters shadow 15:02:16 42° 226° (SW) 1,179 4.5 -31.0°
